USA 157 (MILSTAR-2 2)

Last updated on Sun Jun 21 2026 00:03:03 GMT+0000 (Coordinated Universal Time)

1 26715U 01009A 26171.41856404 .00000100 00000+0 00000+0 0 9999 2 26715 11.5467 19.7486 0039242 177.4528 72.0947 1.00276594 32970
UTC large
Height (km)
Speed (km/s)
/
Latitude / Longitude
Inclination (degrees)
Orbital Period (minutes)
Azimuth
Elevation
Range (km)
Doppler Factor

Next 0 passes for location: London (51.5072 / 0.1276)

No passes found over London.
USA 157 (MILSTAR-2 2)